sat.trackr.live / text

‹ back to catalog

STARLINK-11434 [DTC]

NORAD 62420 · 2024-249M

PAYLOAD ACTIVE UNKNOWN

§ Identity

Operator
Country
US
Launch date
2024-12-23
Launch site
AFETR
Launch vehicle
Mass (kg)
RCS (m²)

Purposes: comms

External: N2YO · Heavens-Above · Gunter

§ Orbital elements

Epoch: 2026-05-25T02:08:28.486176Z

Period
91.67 min
Inclination
43.0005°
Eccentricity
0.0006401
Mean motion
15.70868871 rev/d
Perigee alt
352.1 km
Apogee alt
360.7 km
Semi-major
6,734.5 km
B*
1.8213e-3
RAAN
67.3758°
Arg perigee
284.2411°
Mean anomaly
75.7746°
Rev number
8,149

§ Raw data

STARLINK-11434 [DTC]1 62420U 24249M   26145.08921859  .00240606  00000+0  18213-2 0  99992 62420  43.0005  67.3758 0006401 284.2411  75.7746 15.70868871 81496

JSON: /api/v1/satellites/62420 · /tle

For live sub-satellite position, see the globe view (requires WebGL).

§ Visibility from observer

Set your observer location to see the next 7 days of passes ≥ 10°. The values pass through the URL so the page stays shareable.

No JS? Fill the form by hand. The geolocation button needs JavaScript.